STARLINK-11358, 62558

Orbit data source: Space-Track

STARLINK-11358, 62558 is a payload satellite in LEO that was launched on Fri, 10 Jan 2025 UTC via an FALCON 9 launch vehicle from the Air Force Eastern Test Range (AFETR). Payload-class satellites include a variety of spacecraft equipped with specific instruments for various scientific and technological missions. These include communications satellites like Starlink; space stations such as the ISS; scientific satellites like the Hubble; Earth observation satellites from companies like Planet Labs, Umbra, and HawkEye 360; GPS; miniature CubeSats for education and research; and military/defense satellites.

Loading next visibility...
Identifier
62558, 2025-006E
Orbit
LEO
Last TLE update
10 hours ago
Origin
Manufacturer
SpaceX/Seattle
Mission
Operational Commercial Communications
Bus & Motor
STARLINK V2M, Unknown motor
Mass
730 kg wet, ~700 kg dry
Launch date (UTC)
2025-01-10 (5 months ago)
Launch vehicle
FALCON 9
Launch site
Air Force Eastern Test Range (AFETR)
Object type
Payload
Rocket body
Debris
Shape & HBR
Box + 2 Pan, 29 m
Radar Cross Section
36.964 m², Large (>1 m²)

Expand to show TLE details & history

TLE from 10 hours ago
0 STARLINK-11358
1 62558U 25006E   25147.83335648 -.00021273  00000-0 -16269-3 0  9992
2 62558  43.0013  62.8906 0001700 264.8968 152.3176 15.70842433  6054
Epoch: 2025-05-27T20:00Z
TLE epoch observation values (Epoch: 2025-05-27T20:00:01.999Z)
Latitude
35.12553°
Longitude
-74.14263°
Altitude
358.959 km
Speed
7.699 km/s
True Right ascension
07h 25m 57s
True Declination
34° 57' 15"
Sunlit
Object was in daylight at epoch
Visualization orbit readout
Latitude
-10.78208°
Longitude
66.52467°
Altitude
357.972 km
Speed
7.696 km/s
Apparent Right ascension
19h 43m 02s
Apparent Declination
-60° 29' 33"
Sunlit
Object is in full shadow
Visualization observer readout
Local Sidereal Time
15:08:15
Azimuth
149.606° SSE
Elevation
-24.909°
Doppler factor
1
Orbital elements
Apogee altitude
359.615 km
Perigee altitude
357.324 km
Semi-major axis
6,736.606 km
Eccentricity
0.00017
Inclination
43.0013°
RAAN
62.8906°
Arg. of periapsis
264.8968°
True anomaly
Unknown
Mean anomaly
152.3176°
Eccentric anomaly
Unknown
Mean motion
3.92538 °/min
Orbital period
91.71 mins
BSTAR
-0.00016269
Loading maneuver chart data...
Loading SW <> Apogee altitude chart data...
Loading historical data...
Loading historical data...
Loading historical data...
Loading historical data...
Loading historical data...
Loading historical data...
Loading historical data...

STARLINK-11358 Visibility forecast

Observer location: undefined°, undefined°

Span
Click to sort rows by Start time (UTC) header in descending order
Start Az.
Max El. time (UTC)
Max El. Az.
Max El.
End time (UTC)
End Az.
5 mins2025-05-28 21:55:37.575Z231.838° WSW2025-05-28 21:58:37.575Z122.592° SE36.005°2025-05-28 22:00:37.575Z80.449° E
4 mins2025-05-28 23:32:37.575Z283.968° WNW2025-05-28 23:34:37.575Z13.023° NNE35.966°2025-05-28 23:36:37.575Z65.602° ENE
|